Norwood, MA

6:36 AM EDT on March 25, 2017 (GMT -0400)
Norwood Memorial

Weather History for KOWD - December, 2012

Change the Weather History Date:

Tuesday, December 11, 2012

  Actual Average Record
Temperature  
Mean Temperature 46 °F -  
Max Temperature 57 °F 41 °F 59 °F (2015)
Min Temperature 34 °F 23 °F 7 °F (2016)
Degree Days  
Heating Degree Days 19    
Moisture  
Dew Point 35 °F    
Average Humidity 65    
Maximum Humidity 88    
Minimum Humidity 44    
Precipitation  
Precipitation 0.00 in - - ()
Sea Level Pressure  
Sea Level Pressure 29.82 in    
Wind  
Wind Speed 7 mph (WNW)    
Max Wind Speed 15 mph    
Max Gust Speed 29 mph    
Visibility 10 miles    
Events Rain    
Averages and records for this station are not official NWS values.
T = Trace of Precipitation, MM = Missing Value Source: NWS Daily Summary

Daily Weather History Graph

Daily Weather History Graph

Search for Another Location

Airport or City:

Trip Planner

Search our weather history database for the weather conditions in past years. The results will help you decide how hot, cold, wet, or windy it might be!

Date:

Astronomy

Dec. 11, 2012 Rise Set
Actual Time 7:03 AM EST 4:12 PM EST
Civil Twilight 6:31 AM EST 4:44 PM EST
Nautical Twilight 5:56 AM EST 5:19 PM EST
Astronomical Twilight 5:22 AM EST 5:53 PM EST
Moon 4:53 AM EST (12/11) 2:49 PM EST (12/11)
Length of Visible Light 10h 12m
Length of Day
9h 09m
Waning Crescent, 4% of the Moon is Illuminated
Dec 11
Waning Crescent
Dec 13
New
Dec 20
First Quarter
Dec 28
Full
Jan 4
Last Quarter

Hourly Weather History & Observations

Time (EST) Temp. Windchill Dew Point Humidity Pressure Visibility Wind Dir Wind Speed Gust Speed Precip Events Conditions
12:18 AM 57.2 °F - 53.6 °F 88% 29.53 in 10.0 mi SW 5.8 mph - N/A   Overcast
12:50 AM 57.2 °F - 53.6 °F 88% 29.54 in 10.0 mi SW 4.6 mph - N/A   Overcast
12:53 AM 57.0 °F - 53.1 °F 87% 29.55 in 10.0 mi SW 3.5 mph - N/A   Overcast
1:15 AM 57.2 °F - 53.6 °F 88% 29.56 in 10.0 mi West 4.6 mph - N/A   Overcast
1:53 AM 54.0 °F - 46.9 °F 77% 29.59 in 10.0 mi NW 12.7 mph 21.9 mph N/A   Overcast
2:11 AM 53.6 °F - 44.6 °F 72% 29.60 in 10.0 mi NW 8.1 mph - N/A   Overcast
2:53 AM 51.1 °F - 43.0 °F 74% 29.62 in 10.0 mi NW 8.1 mph - N/A   Overcast
3:53 AM 50.0 °F - 39.0 °F 66% 29.65 in 10.0 mi NW 5.8 mph - N/A   Overcast
4:53 AM 48.0 °F - 39.0 °F 71% 29.68 in 10.0 mi NW 4.6 mph - N/A   Overcast
5:53 AM 48.0 °F - 37.9 °F 68% 29.70 in 10.0 mi NW 3.5 mph - N/A   Overcast
6:53 AM 46.9 °F - 37.9 °F 71% 29.72 in 10.0 mi NNW 5.8 mph - N/A   Overcast
7:49 AM 46.4 °F 45.2 °F 37.4 °F 71% 29.73 in 10.0 mi NNW 3.5 mph - N/A   Overcast
7:53 AM 46.0 °F 43.9 °F 37.9 °F 73% 29.74 in 10.0 mi NW 4.6 mph - N/A   Overcast
8:36 AM 46.4 °F 42.9 °F 39.2 °F 76% 29.79 in 10.0 mi WNW 6.9 mph - N/A   Overcast
8:53 AM 46.0 °F 42.5 °F 39.9 °F 79% 29.81 in 10.0 mi West 6.9 mph - 0.00 in Rain Light Rain
9:53 AM 46.0 °F 40.6 °F 37.0 °F 71% 29.83 in 10.0 mi WNW 11.5 mph - 0.00 in   Overcast
10:53 AM 48.9 °F - 35.1 °F 59% 29.83 in 10.0 mi West 10.4 mph - N/A   Mostly Cloudy
11:53 AM 48.0 °F - 30.9 °F 52% 29.84 in 10.0 mi NW 15.0 mph 20.7 mph N/A   Partly Cloudy
12:53 PM 46.9 °F - 27.0 °F 46% 29.86 in 10.0 mi NW 13.8 mph 18.4 mph N/A   Clear
1:53 PM 48.0 °F - 28.0 °F 46% 29.88 in 10.0 mi West 11.5 mph - N/A   Clear
2:53 PM 46.9 °F - 26.1 °F 44% 29.90 in 10.0 mi NW 9.2 mph - N/A   Clear
3:53 PM 44.1 °F 38.1 °F 24.1 °F 45% 29.94 in 10.0 mi West 11.5 mph - N/A   Clear
4:53 PM 42.1 °F 37.1 °F 24.1 °F 49% 29.99 in 10.0 mi WNW 8.1 mph - N/A   Clear
5:53 PM 41.0 °F 37.1 °F 23.0 °F 49% 30.01 in 10.0 mi WNW 5.8 mph - N/A   Clear
6:53 PM 39.9 °F 32.9 °F 24.1 °F 53% 30.05 in 10.0 mi WNW 11.5 mph 16.1 mph N/A   Clear
7:53 PM 37.9 °F 30.9 °F 23.0 °F 55% 30.08 in 10.0 mi West 10.4 mph - N/A   Clear
8:53 PM 37.0 °F 30.4 °F 21.0 °F 52% 30.10 in 10.0 mi West 9.2 mph - N/A   Clear
9:53 PM 35.1 °F 29.3 °F 21.9 °F 59% 30.11 in 10.0 mi West 6.9 mph 28.8 mph N/A   Clear
10:53 PM 35.1 °F 30.1 °F 21.0 °F 57% 30.13 in 10.0 mi WNW 5.8 mph - N/A   Clear
11:53 PM 34.0 °F 29.8 °F 19.9 °F 56% 30.16 in 10.0 mi WNW 4.6 mph - N/A   Clear